Showing default

IRIDIUM 140, 43252

Orbit data source: Space-Track

IRIDIUM 140, 43252 is a payload satellite owned by Iridium (US) in LEO that was launched on Fri, 30 Mar 2018 UTC via an FALCON 9 launch vehicle from the Air Force Western Test Range (AFWTR). Payload-class satellites include a variety of spacecraft equipped with specific instruments for various scientific and technological missions. These include communications satellites like Starlink; space stations such as the ISS; scientific satellites like the Hubble; Earth observation satellites from companies like Planet Labs, Umbra, and HawkEye 360; GPS; miniature CubeSats for education and research; and military/defense satellites.

Loading next visibility...
Identifier
43252, 2018-030D
Orbit
LEO
Country
Flag of USUS
Related business
Manufacturer
OATK SSG Gilbert
Mission
Operational Commercial Communications
Bus & Motor
ELITEBUS, Unknown motor
Mass
860 kg wet, 700 kg dry
Launch date (UTC)
2018-03-30 (7 years ago)
Launch vehicle
FALCON 9
Launch site
Air Force Western Test Range (AFWTR)
Object type
Payload
Rocket body
Debris
Shape & HBR
Trap Box + 2 Pan, 4.7 m
Radar Cross Section
14.423 m², Large (>1 m²)

Expand to show TLE details & history
Last TLE update: 14 hours ago

TLE from 14 hours ago
0 IRIDIUM 140
1 43252U 18030D   25258.38702985  .00000321  00000-0  10772-3 0  9998
2 43252  86.3954  45.2924 0002292  92.1054 268.0405 14.34219228390806
Epoch: 2025-09-15T09:17Z
TLE epoch observation values (Epoch: 2025-09-15T09:17:19.379Z)
Latitude
0.00008°
Longitude
-88.63076°
Altitude
780.77 km
Speed
7.463 km/s
True Right ascension
03h 01m 10s
True Declination
0° 00' 00"
Sunlit
Object was in full shadow at epoch
Visualization orbit readout
Latitude
Unknown
Longitude
Unknown
Altitude
Unknown
Speed
Unknown
Apparent Right ascension
Unknown
Apparent Declination
Unknown
Sunlit
N/A
Visualization observer readout
Local Sidereal Time
15:49:53
Azimuth
Unknown
Elevation
Unknown
Doppler factor
Unknown
Orbital elements
Apogee altitude
776.266 km
Perigee altitude
772.987 km
Semi-major axis
7,152.764 km
Eccentricity
0.00023
Inclination
86.3954°
RAAN
45.2924°
Arg. of periapsis
92.1054°
True anomaly
268.01425°
Mean anomaly
268.0405°
Eccentric anomaly
268.02738°
Mean motion
3.58783 °/min
Orbital period
100.34 mins
BSTAR
0.00010772
Loading maneuver chart data...
Computing Atmospheric mass density...
Loading historical data...
Loading historical data...
Loading historical data...
Loading historical data...
Loading historical data...
Loading historical data...
Loading historical data...

Documentation

Showing up to 5 results
|